This demonstration page uses our WeatherBlox Daily Observations layout. Learn more.

Left ArrowRight Arrow

40.92945, -100.16068

Hourly Observations for July 26, 2020

Temp ( °F °C ) Dew Point ( °F °C ) Humidity (%) Winds ( mph kmh ) Pressure ( in mb ) Visibility ( mi km ) Precip ( " mm )
12:15 am 00:15 Cloudy with Thunderstorms 71 21.6 69 20.4 93 93 N 8 13 29.97 1015 5 8.0467 0.09 2.286
12:35 am 00:35 Cloudy with Heavy Thunderstorms 71 21.7 69 20.8 95 95 Calm 29.98 1015 5 8.0467 0.16 4.064
12:55 am 00:55 Cloudy with Heavy Thunderstorms 71 21.5 69 20.6 95 95 SE 7 11 29.99 1016 2 3.21868 0.54 13.716
1:15 am 01:15 Cloudy with Light Thunderstorms 70 21.2 69 20.5 96 96 NNE 8 13 29.94 1014 10 16.0934 0.05 1.27
1:35 am 01:35 Partly Cloudy with Nearby Thunderstorms 71 21.5 69 20.3 93 93 NE 8 13 29.94 1014 10 16.0934 0.05 1.27
1:55 am 01:55 Clear 71 21.5 69 20.5 94 94 E 5 7 29.94 1014 10 16.0934 0.05 1.27
2:15 am 02:15 Partly Cloudy 71 21.5 69 20.5 94 94 ESE 9 15 29.93 1014 10 16.0934 0 0
2:35 am 02:35 Mostly Cloudy 70 21.3 69 20.5 95 95 E 9 15 29.93 1014 10 16.0934 0 0
2:55 am 02:55 Mostly Cloudy 70 21.1 68 20.2 95 95 ESE 10 17 29.92 1013 10 16.0934 0 0
3:15 am 03:15 Mostly Cloudy 70 21 68 19.8 93 93 ESE 8 13 29.92 1013 10 16.0934 0 0
3:35 am 03:35 Partly Cloudy 69 20.8 67 19.7 93 93 SE 9 15 29.93 1013 10 16.0934 0 0
3:55 am 03:55 Clear 69 20.8 67 19.5 92 92 SE 8 13 29.93 1013 10 16.0934 0 0
4:15 am 04:15 Clear 69 20.8 67 19.3 91 91 SE 7 11 29.92 1013 10 16.0934 0 0
4:35 am 04:35 Clear 69 20.7 67 19.3 92 92 SSE 9 15 29.91 1013 10 16.0934 0 0
4:55 am 04:55 Clear 69 20.7 67 19.5 93 93 SSE 9 15 29.9 1012 10 16.0934 0 0
5:15 am 05:15 Clear 69 20.8 67 19.6 93 93 SSE 9 15 29.89 1012 10 16.0934 0 0
5:35 am 05:35 Clear 70 21 67 19.7 92 92 SSE 6 9 29.88 1012 10 16.0934 0 0
5:55 am 05:55 Clear 70 21.2 68 19.8 92 92 SSE 6 9 29.87 1012 10 16.0934 0 0
6:15 am 06:15 Clear 70 21.2 68 20 93 93 SSE 6 9 29.87 1012 10 16.0934 0 0
6:35 am 06:35 Sunny 71 21.4 68 20.1 92 92 Calm 29.88 1012 10 16.0934 0 0
6:55 am 06:55 Sunny 71 21.7 69 20.3 92 92 Calm 29.88 1012 10 16.0934 0 0
7:15 am 07:15 Sunny 69 20.8 68 20.1 96 96 NNW 3 6 29.9 1012 10 16.0934 0 0
7:35 am 07:35 Sunny 71 21.5 69 20.5 94 94 NNW 5 7 29.9 1013 10 16.0934 0 0
7:55 am 07:55 Sunny 71 21.5 69 20.5 94 94 Calm 29.91 1013 10 16.0934 0 0
8:15 am 08:15 Sunny 72 22.1 69 20.8 92 92 NNW 6 9 29.91 1013 10 16.0934 0 0
8:35 am 08:35 Sunny 73 22.5 70 20.9 91 91 NW 7 11 29.91 1013 10 16.0934 0 0
8:55 am 08:55 Sunny 74 23.1 70 20.9 87 87 WNW 7 11 29.92 1013 10 16.0934 0 0
9:15 am 09:15 Sunny 74 23.1 70 21 88 88 NNW 6 9 29.92 1013 10 16.0934 0 0
9:35 am 09:35 Sunny 74 23.3 70 21.1 88 88 NNW 5 7 29.91 1013 10 16.0934 0 0
9:55 am 09:55 Sunny 76 24.2 71 21.6 85 85 NW 7 11 29.92 1013 10 16.0934 0 0
10:15 am 10:15 Sunny 76 24.3 71 21.7 85 85 NW 7 11 29.92 1013 10 16.0934 0 0
10:35 am 10:35 Sunny 77 24.8 71 21.7 83 83 NNW 8 13 29.91 1013 10 16.0934 0 0
10:55 am 10:55 Sunny 77 25.2 71 21.9 82 82 N 8 13 29.91 1013 10 16.0934 0 0
11:15 am 11:15 Sunny 78 25.3 72 22.1 83 83 NNW 7 11 29.91 1013 10 16.0934 0 0
11:35 am 11:35 Sunny 79 26 72 22.4 81 81 N 5 7 29.9 1013 10 16.0934 0 0
11:55 am 11:55 Partly Cloudy 82 27.5 73 23 77 77 N 10 17 29.9 1012 10 16.0934 0 0
12:15 pm 12:15 Partly Cloudy 81 27.4 73 22.8 76 76 NNE 12 19 29.9 1013 10 16.0934 0 0
12:35 pm 12:35 Partly Cloudy 82 27.5 73 22.6 75 75 NNE 9 15 29.91 1013 10 16.0934 0 0
12:55 pm 12:55 Partly Cloudy 82 27.5 73 22.7 75 75 NE 8 13 29.91 1013 10 16.0934 0 0
1:15 pm 13:15 Partly Cloudy 81 27.2 73 22.6 76 76 NNE 8 13 29.91 1013 10 16.0934 0 0
1:35 pm 13:35 Mostly Cloudy 80 26.7 72 22.3 77 77 N 7 11 29.93 1013 10 16.0934 0 0
1:55 pm 13:55 Cloudy 79 26.2 73 22.7 81 81 NE 7 11 29.93 1014 10 16.0934 0 0
2:15 pm 14:15 Cloudy 79 26.1 73 22.7 82 82 ENE 8 13 29.93 1014 10 16.0934 0 0
2:35 pm 14:35 Cloudy with Light Rain 78 25.8 73 22.8 84 84 ENE 7 11 29.94 1014 10 16.0934 0.01 0.254
2:55 pm 14:55 Cloudy with Rain 77 25.2 73 22.9 87 87 Calm 29.96 1014 10 16.0934 0.01 0.254
3:15 pm 15:15 Cloudy with Light Rain 77 25.2 74 23.1 88 88 NE 3 6 29.96 1014 10 16.0934 0.01 0.254
3:35 pm 15:35 Cloudy with Light Rain 77 25.2 73 23 88 88 ENE 5 7 29.96 1014 10 16.0934 0.01 0.254
3:55 pm 15:55 Cloudy with Light Rain 77 25 74 23.3 90 90 NE 5 7 29.96 1015 10 16.0934 0.04 1.016
4:15 pm 16:15 Cloudy with Drizzle 76 24.7 74 23.1 91 91 E 9 15 29.94 1014 10 16.0934 0 0
4:35 pm 16:35 Cloudy with Light Rain 76 24.5 74 23.2 92 92 ENE 12 19 29.92 1013 5 8.0467 0.02 0.508
4:55 pm 16:55 Cloudy with Light Rain 76 24.6 74 23.5 94 94 ENE 7 11 29.91 1013 10 16.0934 0.04 1.016
5:15 pm 17:15 Cloudy 76 24.7 73 22.9 90 90 NNE 5 7 29.92 1013 10 16.0934 0 0
5:35 pm 17:35 Cloudy 77 24.8 73 22.9 89 89 N 5 7 29.92 1013 10 16.0934 0 0
5:55 pm 17:55 Cloudy 76 24.7 74 23.1 91 91 NNE 6 9 29.9 1013 10 16.0934 0 0
6:15 pm 18:15 Cloudy 77 24.8 73 22.9 89 89 Calm 29.91 1013 10 16.0934 0 0
6:35 pm 18:35 Cloudy 76 24.7 73 22.9 90 90 Calm 29.92 1013 10 16.0934 0 0
6:55 pm 18:55 Cloudy with Light Rain 76 24.5 73 22.9 91 91 Calm 29.92 1013 10 16.0934 0 0
7:15 pm 19:15 Cloudy 76 24.5 73 23 91 91 NNW 3 6 29.93 1014 10 16.0934 0 0
7:35 pm 19:35 Cloudy 76 24.6 73 23 91 91 Calm 29.93 1014 10 16.0934 0 0
7:55 pm 19:55 Mostly Cloudy 76 24.6 74 23.1 91 91 SE 5 7 29.92 1013 10 16.0934 0 0
8:15 pm 20:15 Mostly Cloudy 76 24.7 73 23 90 90 Calm 29.94 1014 10 16.0934 0 0
8:35 pm 20:35 Cloudy 76 24.5 74 23.3 93 93 Calm 29.94 1014 10 16.0934 0 0
8:55 pm 20:55 Cloudy with Light Rain 76 24.3 74 23.2 94 94 Calm 29.96 1014 10 16.0934 0 0
9:15 pm 21:15 Mostly Cloudy 75 24 74 23.1 95 95 N 3 6 29.98 1015 10 16.0934 0 0
9:35 pm 21:35 Mostly Cloudy 75 23.7 73 23 96 96 N 5 7 29.99 1016 10 16.0934 0 0
9:55 pm 21:55 Cloudy 75 23.7 73 22.7 94 94 ENE 3 6 29.99 1016 10 16.0934 0 0
10:15 pm 22:15 Cloudy 75 24 73 22.7 92 92 E 3 6 29.99 1015 10 16.0934 0 0
10:35 pm 22:35 Cloudy 75 24 73 22.8 93 93 NE 5 7 30 1016 10 16.0934 0 0
10:55 pm 22:55 Cloudy 75 23.7 73 22.7 94 94 NE 3 6 30 1016 10 16.0934 0 0
11:15 pm 23:15 Mostly Cloudy 75 24 73 22.5 91 91 E 9 15 30 1016 10 16.0934 0 0
11:35 pm 23:35 Cloudy with Light Rain 73 22.7 71 21.4 92 92 E 8 13 30 1016 7 11.26538 0.01 0.254
11:55 pm 23:55 Partly Cloudy 72 22.4 68 20 86 86 E 7 11 30 1016 10 16.0934 0.01 0.254

Powered by AerisWeather